This demonstration page uses our WeatherBlox Daily Observations layout. Learn more.

41.55636, -103.73856

Hourly Observations for March 24, 2019

Temp ( °F °C ) Dew Point ( °F °C ) Humidity (%) Winds ( mph kmh ) Pressure ( in mb ) Visibility ( mi km ) Precip ( " mm )
12:58 am 00:58 Cloudy with Light Rain 37 2.7 35 1.5 92 92 WNW 5 7 30.02 1017 10 16.0934 0 0
1:58 am 01:58 Cloudy with Rain 36 2.3 35 1.6 95 95 NW 6 9 30.06 1018 4 6.43736 0.04 1.016
2:58 am 02:58 Mostly Cloudy with Light Rain 37 2.5 35 1.9 96 96 WNW 9 15 30.07 1018 5 8.0467 0.01 0.254
3:58 am 03:58 Mostly Cloudy with Light Drizzle 36 2.4 35 1.6 95 95 NW 12 19 30.08 1019 10 16.0934 0 0
4:58 am 04:58 Mostly Cloudy with Light Rain 36 2.4 35 1.6 95 95 NW 10 17 30.08 1019 10 16.0934 0.02 0.508
5:58 am 05:58 Mostly Cloudy with Light Rain 37 2.6 35 1.5 93 93 NW 12 19 30.06 1018 10 16.0934 0 0
6:58 am 06:58 Mostly Cloudy with Light Drizzle 37 2.7 35 1.6 93 93 N 10 17 30.06 1018 10 16.0934 0 0
7:58 am 07:58 Cloudy 37 2.8 35 1.5 91 91 N 10 17 30.06 1018 10 16.0934 0 0
8:58 am 08:58 Mostly Cloudy with Light Showers 37 2.6 35 1.4 92 92 N 9 15 30.05 1018 10 16.0934 0 0
9:58 am 09:58 Mostly Cloudy 36 2.1 33 0.8 91 91 WNW 3 6 30.08 1019 10 16.0934 0 0
10:58 am 10:58 Mostly Cloudy with Mist and Fog 35 1.4 33 0.5 94 94 W 5 7 30.08 1019 6 9.65604 0 0
11:58 am 11:58 Mostly Cloudy with Mist and Fog 34 1.2 33 0.5 95 95 WNW 7 11 30.1 1019 4 6.43736 0 0
12:58 pm 12:58 Mostly Cloudy 34 1.1 33 0.3 94 94 W 5 7 30.1 1019 10 16.0934 0 0
1:58 pm 13:58 Mostly Cloudy 35 1.6 34 0.9 95 95 WNW 5 7 30.13 1020 10 16.0934 0 0
2:58 pm 14:58 Partly Cloudy 39 4.1 36 2.1 87 87 NW 6 9 30.12 1020 10 16.0934 0 0
3:58 pm 15:58 Mostly Cloudy 42 5.4 36 2.2 80 80 N 6 9 30.12 1020 10 16.0934 0 0
4:58 pm 16:58 Mostly Cloudy 43 6.1 38 3.1 81 81 N 5 7 30.13 1020 10 16.0934 0 0
5:58 pm 17:58 Mostly Cloudy 43 6 37 2.8 80 80 NE 8 13 30.13 1020 10 16.0934 0 0
6:58 pm 18:58 Partly Cloudy 44 6.5 37 2.6 76 76 ENE 7 11 30.11 1020 10 16.0934 0 0
7:58 pm 19:58 Mostly Cloudy 44 6.7 37 2.5 75 75 NE 6 9 30.11 1020 10 16.0934 0 0
8:58 pm 20:58 Mostly Cloudy 45 7.3 37 2.8 73 73 NE 8 13 30.1 1019 10 16.0934 0 0
9:58 pm 21:58 Mostly Cloudy 44 6.8 38 3.1 78 78 NE 9 15 30.11 1020 10 16.0934 0 0
10:58 pm 22:58 Mostly Cloudy 44 6.6 37 3 78 78 E 7 11 30.14 1021 10 16.0934 0 0
11:58 pm 23:58 Partly Cloudy 42 5.8 37 2.5 80 80 E 7 11 30.16 1021 10 16.0934 0 0

Powered by AerisWeather